Vorticity
14 15 15 11 12 12 13 13 12 14 12 13 7 7 6 8 7 9 5 12 12 17
11 9 17 10 9 9 10 10 11 11 10 8 9 7 10 8 10 25 24 26 28 17
16 11 19 12 5 12 10 9 11 9 9 10 10 10 8 4 14 0 4 5 5 2
10 18 26 18 3 8 15 12 11 12 14 9 13 7 12 14 18 8 8 15 18 11
6 -4 34 10 6 11 10 14 11 12 14 14 12 17 19 15 23 16 -16 10 22 22
13 13 29 10 1 5 6 8 11 14 9 14 16 4 16 8 1 11 5 16 16 23
19 14 21 18 10 1 7 8 11 13 15 26 10 5 8 6 8 2 7 32 30 27
19 15 20 21 11 3 8 14 9 17 21 0 5 12 12 5 3 4 42 19 19 14
19 15 17 13 9 7 9 12 11 12 11 10 12 18 25 13 5 38 14 24 36 23
20 21 13 12 13 15 15 10 18 12 12 13 7 23 27 6 36 20 26 14 4 8
12 15 14 13 11 13 12 10 18 16 3 2 12 16 7 36 20 17 8 12 6 16
18 2 19 10 13 9 12 15 13 22 12 8 23 13 44 22 4 14 3 15 25 15
17 -19 7 12 6 11 11 11 7 21 17 18 24 37 15 5 10 12 1 9 12 24
13 21 0 -12 -5 33 10 7 10 12 17 25 30 9 27 6 19 8 9 16 9 11
Height
5627 5629 5631 5633 5634 5637 5639 5641 5644 5647 5652 5655 5659 5661 5663 5666 5668 5670 5673 5675 5678 5682
5614 5615 5618 5620 5623 5625 5626 5629 5631 5633 5637 5640 5644 5647 5649 5651 5653 5654 5656 5659 5661 5666
5601 5602 5604 5607 5612 5613 5615 5617 5619 5621 5624 5626 5629 5632 5634 5636 5638 5641 5644 5646 5647 5651
5589 5590 5592 5595 5599 5602 5603 5605 5607 5609 5612 5613 5615 5617 5619 5621 5623 5626 5629 5629 5630 5633
5578 5579 5580 5584 5587 5590 5592 5593 5595 5597 5599 5600 5602 5603 5604 5607 5609 5611 5612 5612 5613 5615
5566 5568 5569 5572 5575 5578 5581 5582 5583 5584 5585 5587 5588 5590 5592 5593 5594 5595 5596 5595 5596 5597
5555 5557 5558 5561 5565 5568 5570 5571 5571 5572 5573 5574 5576 5578 5578 5579 5579 5579 5578 5575 5577 5581
5545 5546 5548 5550 5555 5558 5559 5560 5560 5560 5561 5563 5565 5565 5565 5565 5564 5562 5559 5560 5564 5567
5535 5537 5539 5542 5545 5548 5549 5549 5550 5550 5551 5553 5554 5553 5553 5550 5548 5547 5548 5551 5555 5558
5527 5529 5532 5534 5537 5539 5540 5541 5540 5541 5542 5543 5543 5541 5540 5538 5537 5539 5542 5545 5549 5553
5520 5523 5526 5529 5530 5531 5532 5532 5533 5533 5534 5534 5533 5531 5528 5528 5530 5534 5538 5543 5547 5550
5515 5518 5519 5521 5523 5525 5525 5526 5526 5526 5527 5526 5523 5520 5521 5522 5526 5530 5536 5539 5541 5543
5507 5510 5513 5515 5517 5519 5520 5521 5521 5520 5520 5519 5515 5514 5517 5520 5523 5527 5533 5535 5536 5538
5500 5503 5506 5510 5512 5514 5515 5516 5516 5517 5516 5512 5511 5513 5515 5519 5524 5527 5531 5533 5534 5536